Погода в Шапках

Россия / Санкт-Петербург и Ленинградская область     59°36′19″N   31°11′59″E
темп.,
°C
ветер,
м/с
пор.,
м/с
влажн.,
%
обл.,
%
осадки,
мм/ч
давл.,
гПа
погр.,
м
25 июля, вс
вс2500:00+11зсз116893 0.0 101710
03:00+10юз227252 0.0 101820
06:00+13юз2557100 0.0 1017113
09:00+15юз3756100 0.0 1018286
12:00+20зюз464188 0.0 1019915
15:00+23з363999 0.0 10181984
18:00+23зсз24419 0.0 10181695
21:00+17ссз22665 0.0 101913
26 июля, пн
пн2600:00+14зсз117114 0.0 102010
03:00+13зюз117611 0.0 102011
06:00+15юз237182 0.0 102180
09:00+22з23487 0.0 1021464
12:00+27зюз22361 0.0 10211639
15:00+28зюз1234100 0.0 10202511
18:00+27зюз22369 0.0 10191912
21:00+21зсз11585 0.0 102014
27 июля, вт
вт2700:00+17ссв007111 0.0 102111
03:00+16юв01740 0.0 102111
06:00+17ююв11760 0.0 102111
09:00+24ю11500 0.0 1020359
12:00+28ююв21355 0.0 10191930
15:00+29ююв223010 0.0 10182695
18:00+29ююв22315 0.0 10172220
21:00+21в22600 0.0 101631
28 июля, ср
ср2800:00+19юв226346 0.0 101634
03:00+17вюв237183 0.0 101559
06:00+17ююв237280 0.0 101370
09:00+24юв354927 0.0 1012382
12:00+28юв354182 0.0 10101401
15:00+28ююв244393 0.0 10081716
18:00+23ю3566100 0.8 1008561
21:00+19юз2587100 1.0 1007196
29 июля, чт
чт2900:00+17юз2498100 0.0 100694
03:00+16ююз2499100 0.0 1005108
06:00+17ю279591 0.0 1004253
09:00+21зюз467984 0.2 1003771
12:00+24зюз586091 0.1 10031463
15:00+24зюз610575 1.6 10021356
18:00+23з512580 0.8 10021522
21:00+19з512680 0.8 10031003